VE3KSR Weather Reports


Display with metric or nautical units.
time (UTC)temp
F
wind
direction
speed
MPH
gust
MPH
rain 1hr
in
rain 24hr
in
rain mn
in
humidity
%
barometer
mb
20170322220440 23 346 15.0 20.0 0.03 0.00 0.00 57 1035.1
20170322215940 22 328 14.0 18.0 0.03 0.00 0.00 59 1035.1
20170322215440 23 345 13.0 19.0 0.03 0.00 0.00 61 1035.0
20170322214940 23 345 16.0 22.0 0.03 0.00 0.00 60 1035.1
20170322214440 23 342 14.0 17.0 0.03 0.00 0.00 64 1035.3
20170322213940 23 333 11.0 17.0 0.03 0.00 0.00 65 1035.4
20170322213440 23 349 13.0 20.0 0.03 0.00 0.00 63 1035.6
20170322212940 23 14 15.0 21.0 0.03 0.00 0.00 64 1035.5
20170322212443 23 338 11.0 17.0 0.03 0.00 0.00 61 1035.4
20170322211940 22 354 16.0 21.0 0.03 0.00 0.00 60 1035.3
20170322211441 22 357 13.0 19.0 0.03 0.00 0.00 62 1035.3
20170322210941 22 347 16.0 19.0 0.03 0.00 0.00 62 1035.4
20170322210440 22 333 12.0 20.0 0.03 0.00 0.00 63 1035.4
20170322205941 22 343 16.0 21.0 0.03 0.00 0.00 62 1035.4
20170322205440 22 347 14.0 21.0 0.03 0.00 0.00 61 1035.4
20170322204940 22 326 14.0 17.0 0.03 0.00 0.00 62 1035.3
20170322204440 22 352 16.0 21.0 0.03 0.00 0.00 62 1035.3
20170322203940 22 329 11.0 14.0 0.03 0.00 0.00 62 1035.5
20170322203440 22 321 13.0 19.0 0.03 0.00 0.00 62 1035.3
20170322202940 22 346 13.0 19.0 0.03 0.00 0.00 60 1035.4
20170322202440 21 13 13.0 18.0 0.03 0.00 0.00 61 1035.5
20170322201940 21 357 13.0 18.0 0.03 0.00 0.00 61 1035.6
20170322200440 22 3 11.0 15.0 0.03 0.00 0.00 63 1035.6
20170322195940 21 359 11.0 16.0 0.03 0.00 0.00 63 1035.5
20170322195440 21 304 11.0 17.0 0.03 0.00 0.00 64 1035.7
20170322194941 21 13 15.0 20.0 0.03 0.00 0.00 62 1035.7
20170322194440 21 338 13.0 20.0 0.03 0.00 0.00 62 1035.7
20170322193940 21 3 8.0 11.0 0.03 0.00 0.00 62 1035.7
20170322193440 20 13 14.0 17.0 0.03 0.00 0.00 62 1035.8
20170322192940 20 345 14.0 19.0 0.03 0.00 0.00 61 1035.8
20170322192440 20 347 16.0 23.0 0.03 0.00 0.00 62 1035.7
20170322191940 20 346 15.0 20.0 0.03 0.00 0.00 64 1035.8
20170322191440 20 336 14.0 19.0 0.03 0.00 0.00 62 1035.7
20170322190940 20 4 13.0 17.0 0.03 0.00 0.00 62 1035.8
20170322190440 20 347 15.0 20.0 0.03 0.00 0.00 64 1035.7
20170322185940 20 343 12.0 17.0 0.03 0.00 0.00 62 1035.8
20170322185440 19 32 11.0 16.0 0.03 0.00 0.00 62 1036.2
20170322184940 19 23 13.0 17.0 0.03 0.00 0.00 60 1036.1
20170322184440 20 339 14.0 21.0 0.03 0.00 0.00 62 1036.1
20170322183940 20 350 16.0 20.0 0.03 0.00 0.00 62 1036.1
20170322183442 20 336 11.0 15.0 0.03 0.00 0.00 64 1036.3
20170322182940 19 291 13.0 18.0 0.03 0.00 0.00 63 1036.3
20170322182440 19 328 14.0 18.0 0.03 0.00 0.00 63 1036.3
20170322181940 19 41 15.0 20.0 0.03 0.00 0.00 62 1036.3
20170322181441 19 15 13.0 18.0 0.03 0.00 0.00 60 1036.4
20170322180940 18 18 15.0 21.0 0.03 0.00 0.00 62 1036.4
20170322180440 18 330 16.0 21.0 0.03 0.00 0.00 60 1036.5
20170322175940 18 14 15.0 20.0 0.03 0.00 0.00 63 1036.6
20170322175440 18 10 16.0 20.0 0.03 0.00 0.00 59 1036.7
20170322174940 18 21 17.0 20.0 0.03 0.00 0.00 60 1036.7
20170322174440 18 269 16.0 22.0 0.03 0.00 0.00 63 1036.6
20170322173940 18 336 15.0 20.0 0.03 0.00 0.00 61 1036.6
20170322173441 18 345 15.0 23.0 0.03 0.00 0.00 63 1036.8
20170322172940 18 349 11.0 15.0 0.03 0.00 0.00 63 1036.9
20170322172441 18 350 18.0 23.0 0.03 0.00 0.00 63 1036.9
20170322171940 17 352 14.0 18.0 0.03 0.00 0.00 63 1036.9
20170322171441 17 347 13.0 19.0 0.03 0.00 0.00 62 1037.0
20170322170940 17 13 14.0 17.0 0.03 0.00 0.00 65 1037.0
20170322170440 17 347 16.0 21.0 0.03 0.00 0.00 64 1037.0
20170322165941 17 323 14.0 18.0 0.03 0.00 0.00 65 1037.1
20170322165440 17 336 11.0 15.0 0.03 0.00 0.00 66 1037.2
20170322164941 17 13 18.0 23.0 0.03 0.00 0.00 64 1037.1
20170322164441 17 339 13.0 17.0 0.03 0.00 0.00 63 1037.0
20170322163941 17 357 12.0 15.0 0.03 0.00 0.00 65 1037.0
20170322163441 16 20 14.0 19.0 0.03 0.00 0.00 65 1036.9
20170322162941 16 25 15.0 19.0 0.03 0.00 0.00 65 1037.0
20170322162441 15 352 14.0 21.0 0.03 0.00 0.00 65 1037.0
20170322161941 15 14 15.0 20.0 0.03 0.00 0.00 66 1036.8
20170322161441 15 342 14.0 19.0 0.03 0.00 0.00 69 1036.7
20170322160941 15 353 15.0 19.0 0.03 0.00 0.00 66 1036.7
20170322160441 15 53 14.0 17.0 0.03 0.00 0.00 66 1036.7
20170322155941 15 349 12.0 19.0 0.03 0.00 0.00 67 1036.7
20170322155441 15 340 16.0 22.0 0.03 0.00 0.00 68 1036.8
20170322154941 15 349 16.0 22.0 0.03 0.00 0.00 69 1036.6
20170322154441 15 339 11.0 18.0 0.03 0.00 0.00 70 1036.6
20170322153941 15 4 14.0 17.0 0.03 0.00 0.00 69 1036.6
20170322153441 14 3 14.0 17.0 0.03 0.00 0.00 66 1036.7
20170322152941 14 338 16.0 23.0 0.03 0.00 0.00 66 1036.7
20170322152441 14 13 17.0 23.0 0.03 0.00 0.00 66 1036.8
20170322151941 14 340 14.0 20.0 0.03 0.00 0.00 65 1036.8
20170322151441 14 17 16.0 20.0 0.03 0.00 0.00 66 1036.8
20170322150941 13 30 12.0 16.0 0.03 0.00 0.00 68 1036.8
20170322150530 13 14 18.0 21.0 0.03 0.00 0.00 67 1036.6
20170322150442 13 14 18.0 21.0 0.03 0.00 0.00 67 1036.6
20170322145940 13 10 19.0 25.0 0.03 0.00 0.00 66 1036.6
20170322145441 13 11 17.0 26.0 0.03 0.00 0.00 64 1036.6
20170322144941 13 27 21.0 26.0 0.03 0.00 0.00 65 1036.6
20170322144440 13 21 16.0 20.0 0.03 0.00 0.00 67 1036.6
20170322143941 13 13 19.0 24.0 0.03 0.00 0.00 68 1036.5
20170322143441 14 23 16.0 20.0 0.03 0.00 0.00 68 1036.4
20170322142941 13 20 17.0 21.0 0.03 0.00 0.00 66 1036.3
20170322142441 13 46 18.0 22.0 0.03 0.00 0.00 66 1036.3
20170322141941 13 65 16.0 21.0 0.03 0.00 0.00 54 1036.2
20170322141441 13 32 21.0 24.0 0.03 0.00 0.00 69 1036.2
20170322140941 13 21 16.0 20.0 0.03 0.00 0.00 66 1036.2
20170322140441 13 44 14.0 22.0 0.03 0.00 0.00 71 1036.2
20170322135941 12 27 19.0 24.0 0.03 0.00 0.00 69 1036.1
20170322135441 12 11 17.0 22.0 0.03 0.00 0.00 70 1036.0
20170322134941 12 18 20.0 24.0 0.03 0.00 0.00 70 1035.8
20170322134441 12 11 19.0 25.0 0.03 0.00 0.00 70 1035.7
20170322133941 12 23 16.0 22.0 0.03 0.00 0.00 70 1035.7
20170322133441 12 27 21.0 26.0 0.03 0.00 0.00 68 1035.4
20170322132941 12 18 17.0 22.0 0.03 0.00 0.00 69 1035.3
20170322132441 12 13 22.0 28.0 0.03 0.00 0.00 69 1035.1
20170322131941 12 0 16.0 25.0 0.03 0.00 0.00 69 1035.2
20170322131441 12 25 21.0 25.0 0.03 0.00 0.00 68 1035.1
20170322130941 12 31 20.0 25.0 0.03 0.00 0.00 55 1034.9
20170322130441 12 14 20.0 23.0 0.03 0.00 0.00 68 1034.7
20170322125941 12 10 21.0 30.0 0.03 0.00 0.00 67 1034.5
20170322125441 11 8 23.0 31.0 0.03 0.00 0.00 68 1034.4
20170322124941 11 11 22.0 27.0 0.03 0.00 0.00 67 1034.2
20170322124441 11 18 22.0 28.0 0.03 0.00 0.00 67 1034.2
20170322123941 11 32 19.0 27.0 0.03 0.00 0.00 69 1033.9
20170322123441 10 11 22.0 26.0 0.03 0.00 0.00 70 1033.9
20170322122941 11 14 25.0 31.0 0.03 0.00 0.00 68 1033.9
20170322122441 12 39 23.0 28.0 0.03 0.00 0.00 70 1033.8
20170322121941 12 30 14.0 23.0 0.03 0.00 0.00 75 1033.8
20170322121441 12 21 20.0 26.0 0.03 0.00 0.00 73 1033.6
20170322120941 12 14 20.0 26.0 0.03 0.00 0.00 69 1033.5
20170322120441 12 24 19.0 23.0 0.03 0.00 0.00 69 1033.3
20170322115942 13 30 19.0 27.0 0.03 0.00 0.00 71 1033.3
20170322115441 12 10 22.0 27.0 0.03 0.00 0.00 70 1033.1
20170322114941 12 347 18.0 23.0 0.03 0.00 0.00 69 1032.8
20170322114443 12 7 22.0 30.0 0.03 0.00 0.00 68 1032.7
20170322113941 12 340 21.0 29.0 0.03 0.00 0.00 69 1032.7
20170322113441 13 17 18.0 26.0 0.03 0.00 0.00 75 1032.6
20170322112944 13 20 14.0 19.0 0.03 0.00 0.00 76 1032.6
20170322112441 13 21 14.0 19.0 0.03 0.00 0.00 76 1032.5
20170322111941 13 24 16.0 20.0 0.03 0.00 0.00 74 1032.3
20170322111441 13 3 14.0 18.0 0.03 0.00 0.00 71 1032.2
20170322110941 13 350 18.0 22.0 0.03 0.00 0.00 69 1032.1
20170322110444 13 21 19.0 24.0 0.03 0.00 0.00 69 1031.9
20170322105941 13 10 16.0 21.0 0.03 0.00 0.00 68 1031.8
20170322105442 13 349 21.0 25.0 0.03 0.00 0.00 68 1031.6
20170322104941 14 6 22.0 29.0 0.03 0.00 0.00 65 1031.3
20170322104442 14 15 20.0 28.0 0.03 0.00 0.00 67 1031.2
20170322103941 14 34 21.0 28.0 0.03 0.00 0.00 65 1031.2
20170322103543 14 349 20.0 26.0 0.03 0.00 0.00 68 1031.2
20170322103441 14 349 20.0 26.0 0.03 0.00 0.00 68 1031.2
20170322102941 14 15 22.0 27.0 0.03 0.00 0.00 67 1030.9
20170322102443 14 6 17.0 20.0 0.03 0.00 0.00 70 1030.9
20170322101941 15 13 15.0 20.0 0.03 0.00 0.00 71 1030.8
20170322101441 15 7 15.0 19.0 0.03 0.00 0.00 72 1030.8
20170322100941 15 13 18.0 25.0 0.03 0.00 0.00 71 1030.4
20170322100441 14 15 18.0 23.0 0.03 0.00 0.00 72 1030.4
20170322095942 14 10 18.0 23.0 0.03 0.00 0.00 75 1030.4
20170322095441 14 7 21.0 24.0 0.03 0.00 0.00 78 1030.4
20170322094943 14 13 19.0 24.0 0.03 0.00 0.00 76 1030.2
20170322094441 14 11 22.0 30.0 0.03 0.00 0.00 75 1030.1
20170322093941 15 354 20.0 27.0 0.03 0.00 0.00 75 1029.8
20170322093627 15 8 19.0 26.0 0.03 0.00 0.00 75 1029.6
20170322093441 15 8 19.0 26.0 0.03 0.00 0.00 75 1029.6
20170322092941 15 4 19.0 28.0 0.03 0.00 0.00 74 1029.5
20170322092441 15 6 22.0 33.0 0.03 0.00 0.00 75 1029.3
20170322091941 15 6 25.0 31.0 0.03 0.00 0.00 74 1029.3
20170322091441 15 10 23.0 32.0 0.03 0.00 0.00 73 1029.1
20170322090941 16 14 15.0 20.0 0.03 0.00 0.00 73 1029.2
20170322090441 16 347 21.0 26.0 0.03 0.00 0.00 71 1029.0
20170322085942 15 10 21.0 26.0 0.03 0.00 0.00 69 1028.9
20170322085442 16 347 18.0 25.0 0.03 0.00 0.00 68 1028.8
20170322084943 16 10 21.0 28.0 0.03 0.00 0.00 68 1028.6
20170322084442 16 3 19.0 27.0 0.03 0.00 0.00 67 1028.5
20170322083941 16 3 22.0 28.0 0.03 0.00 0.00 67 1028.4
20170322083442 16 8 23.0 31.0 0.03 0.00 0.00 65 1028.3
20170322082941 16 15 22.0 31.0 0.03 0.00 0.00 63 1028.2
20170322082442 16 20 21.0 27.0 0.03 0.00 0.00 64 1028.1
20170322081942 16 342 25.0 31.0 0.03 0.00 0.00 64 1028.1
20170322081442 16 17 22.0 32.0 0.03 0.00 0.00 65 1028.0
20170322080941 16 15 25.0 34.0 0.03 0.00 0.00 61 1027.9
20170322080512 16 13 25.0 32.0 0.03 0.00 0.00 64 1027.7
20170322080441 16 13 25.0 32.0 0.03 0.00 0.00 64 1027.7
20170322075942 16 10 27.0 39.0 0.03 0.00 0.00 65 1027.6
20170322075442 16 10 26.0 35.0 0.03 0.00 0.00 62 1027.4
20170322074942 16 20 22.0 38.0 0.03 0.00 0.00 64 1027.5
20170322074442 16 13 23.0 29.0 0.03 0.00 0.00 66 1027.4
20170322073941 16 15 25.0 32.0 0.03 0.00 0.00 64 1027.2
20170322073442 17 356 16.0 23.0 0.03 0.00 0.00 68 1027.3
20170322072942 17 14 19.0 24.0 0.03 0.00 0.00 68 1027.0
20170322072442 17 7 19.0 28.0 0.03 0.00 0.00 65 1026.9
20170322071942 17 10 24.0 37.0 0.03 0.00 0.00 64 1026.7
20170322071442 18 30 27.0 35.0 0.03 0.00 0.00 64 1026.6
20170322070942 18 13 27.0 40.0 0.03 0.00 0.00 65 1026.5
20170322070535 19 8 27.0 33.0 0.03 0.00 0.00 70 1026.5
20170322070441 19 8 27.0 33.0 0.03 0.00 0.00 70 1026.5
20170322065942 19 336 21.0 28.0 0.03 0.00 0.00 70 1026.4
20170322065442 19 27 21.0 31.0 0.03 0.00 0.00 69 1026.3
20170322064942 19 347 20.0 25.0 0.03 0.00 0.00 72 1026.2
20170322064442 19 37 23.0 30.0 0.03 0.00 0.00 71 1025.9
20170322063942 20 28 28.0 38.0 0.03 0.00 0.00 71 1025.7
20170322063442 20 18 26.0 34.0 0.03 0.00 0.00 72 1025.6
20170322062942 21 359 19.0 27.0 0.03 0.00 0.00 77 1025.5
20170322062442 21 28 25.0 35.0 0.03 0.00 0.00 79 1025.2
20170322061942 21 11 23.0 29.0 0.03 0.00 0.00 77 1025.0
20170322061442 21 17 29.0 37.0 0.03 0.00 0.00 80 1024.8
20170322060530 21 13 26.0 35.0 0.03 0.00 0.00 85 1024.5
20170322060442 21 13 26.0 35.0 0.03 0.00 0.00 85 1024.5
20170322055942 22 23 23.0 31.0 0.03 0.00 0.00 85 1024.3
20170322055442 22 11 23.0 35.0 0.03 0.00 0.00 85 1024.1
20170322054942 22 350 16.0 24.0 0.03 0.00 0.00 87 1024.1
20170322054442 22 18 21.0 32.0 0.03 0.00 0.00 86 1023.9
20170322053942 22 1 20.0 28.0 0.03 0.00 0.00 88 1023.9
20170322053442 22 330 18.0 25.0 0.03 0.00 0.00 89 1023.8
20170322052942 22 347 20.0 26.0 0.03 0.00 0.00 90 1023.7
20170322052442 22 6 19.0 24.0 0.03 0.00 0.00 91 1023.7
20170322051942 23 343 21.0 26.0 0.03 0.00 0.00 92 1023.7
20170322051442 22 357 24.0 31.0 0.03 0.00 0.00 92 1023.6
20170322050942 23 342 20.0 28.0 0.03 0.00 0.00 93 1023.4
20170322050443 23 330 22.0 29.0 0.03 0.00 0.00 93 1023.4
20170322045942 23 325 22.0 33.0 0.03 0.00 0.00 93 1023.5
20170322045442 23 339 22.0 30.0 0.03 0.00 0.00 92 1023.2
20170322044942 23 342 27.0 34.0 0.03 0.00 0.00 91 1023.1
20170322044442 23 347 27.0 39.0 0.03 0.00 0.00 90 1023.0
20170322043942 22 346 24.0 37.0 0.03 0.00 0.00 86 1023.1
20170322043442 22 338 28.0 37.0 0.03 0.00 0.00 84 1022.8
20170322043159 22 340 25.0 35.0 0.03 0.00 0.00 83 1022.8
20170322042942 22 340 25.0 35.0 0.03 0.00 0.00 83 1022.8
20170322042442 22 345 26.0 38.0 0.03 0.00 0.00 85 1022.6
20170322041943 23 340 27.0 39.0 0.03 0.00 0.00 86 1022.3
20170322041442 22 330 27.0 38.0 0.03 0.00 0.00 86 1022.2
20170322040942 22 340 29.0 38.0 0.03 0.00 0.00 87 1022.0
20170322040444 23 345 26.0 43.0 0.03 0.00 0.00 85 1021.9
20170322035942 23 342 24.0 33.0 0.03 0.00 0.00 86 1022.0
20170322035442 23 339 23.0 33.0 0.03 0.00 0.00 86 1022.1
20170322034942 23 345 26.0 39.0 0.03 0.00 0.00 85 1021.9
20170322034443 23 342 27.0 42.0 0.03 0.00 0.00 85 1022.1
20170322033943 23 350 29.0 43.0 0.03 0.00 0.00 84 1022.2
20170322033442 23 346 30.0 43.0 0.03 0.00 0.00 82 1021.9
20170322032942 24 353 23.0 31.0 0.03 0.00 0.00 85 1022.2
20170322032442 24 345 25.0 36.0 0.03 0.00 0.00 83 1022.1
20170322031942 24 343 30.0 42.0 0.03 0.00 0.00 81 1022.1
20170322031442 24 342 27.0 39.0 0.03 0.00 0.00 83 1022.0
20170322030942 24 338 24.0 37.0 0.03 0.00 0.00 83 1022.2
20170322030443 24 346 25.0 36.0 0.03 0.00 0.00 83 1022.2
20170322025942 24 343 24.0 36.0 0.03 0.00 0.00 84 1022.2
20170322025442 24 343 29.0 38.0 0.03 0.00 0.00 83 1022.2
20170322024942 24 339 33.0 46.0 0.03 0.00 0.00 83 1022.1
20170322024442 24 339 23.0 35.0 0.03 0.00 0.00 82 1022.1
20170322023942 24 329 27.0 41.0 0.03 0.00 0.00 81 1021.9
20170322023442 24 336 26.0 40.0 0.03 0.00 0.00 82 1021.7
20170322022942 25 346 27.0 37.0 0.03 0.00 0.00 81 1021.4
20170322022442 24 343 25.0 38.0 0.03 0.00 0.00 83 1021.5
20170322021942 25 342 26.0 40.0 0.03 0.00 0.00 83 1021.4
20170322021442 25 342 24.0 35.0 0.03 0.00 0.00 85 1021.4
20170322020942 24 342 24.0 35.0 0.03 0.00 0.00 85 1021.4
20170322020442 25 336 27.0 36.0 0.03 0.00 0.00 86 1021.4
20170322015946 25 346 21.0 30.0 0.03 0.00 0.00 85 1021.6
20170322015442 25 342 26.0 38.0 0.03 0.00 0.00 85 1021.3
20170322014942 25 10 29.0 37.0 0.03 0.00 0.00 85 1021.4
20170322014442 25 343 30.0 46.0 0.03 0.00 0.00 85 1021.6
20170322013943 24 340 24.0 38.0 0.03 0.00 0.00 86 1021.6
20170322013442 25 340 23.0 31.0 0.03 0.00 0.00 87 1021.7
20170322012943 25 343 26.0 39.0 0.03 0.00 0.00 85 1021.6
20170322012442 25 329 25.0 35.0 0.03 0.00 0.00 87 1021.7
20170322011943 25 339 24.0 32.0 0.03 0.00 0.00 87 1021.7
20170322011442 25 345 30.0 41.0 0.03 0.00 0.00 86 1021.3
20170322010943 25 338 31.0 42.0 0.03 0.00 0.00 86 1021.2
20170322010443 26 328 21.0 32.0 0.03 0.00 0.00 88 1021.1
20170322005946 26 339 22.0 35.0 0.03 0.00 0.00 89 1021.1
20170322005443 26 338 26.0 38.0 0.03 0.00 0.00 88 1021.1
20170322004943 25 339 23.0 33.0 0.03 0.00 0.00 88 1021.0
20170322004443 26 318 22.0 31.0 0.03 0.00 0.00 88 1021.1
20170322003943 25 339 24.0 40.0 0.03 0.00 0.00 89 1021.0
20170322003444 25 340 27.0 38.0 0.03 0.00 0.00 89 1021.0
20170322002943 26 336 27.0 37.0 0.03 0.00 0.00 87 1021.1
20170322002443 26 326 24.0 31.0 0.03 0.00 0.00 87 1021.1
20170322001943 26 335 22.0 30.0 0.03 0.00 0.00 88 1021.2
20170322001443 26 335 22.0 30.0 0.03 0.00 0.00 82 1021.2
20170322000943 26 343 23.0 33.0 0.03 0.00 0.00 84 1020.9
20170322000443 27 340 28.0 40.0 0.03 0.00 0.00 82 1020.7
20170321235944 27 336 28.0 39.0 0.03 0.00 0.00 81 1020.4
20170321235444 28 316 27.0 39.0 0.03 0.00 0.00 82 1020.1
20170321234943 28 336 28.0 37.0 0.03 0.00 0.00 82 1020.0
20170321234443 29 346 27.0 38.0 0.03 0.00 0.00 82 1019.8
20170321233944 29 333 27.0 34.0 0.03 0.00 0.00 83 1019.9
20170321233443 29 342 23.0 34.0 0.03 0.00 0.00 82 1020.1
20170321232943 30 340 20.0 30.0 0.03 0.00 0.00 83 1020.0
20170321232443 30 342 25.0 37.0 0.03 0.00 0.00 83 1020.1
20170321231943 31 343 20.0 35.0 0.03 0.00 0.00 84 1020.1
20170321231443 31 335 27.0 36.0 0.03 0.00 0.00 85 1019.9
20170321230944 31 340 28.0 39.0 0.03 0.00 0.00 82 1019.8
20170321230444 32 318 23.0 32.0 0.03 0.00 0.00 82 1019.9
20170321225943 32 336 20.0 29.0 0.03 0.00 0.00 80 1019.6
20170321225444 32 343 26.0 37.0 0.03 0.00 0.00 78 1019.4
20170321224943 32 345 25.0 40.0 0.03 0.00 0.00 76 1019.1
20170321224443 33 342 27.0 38.0 0.03 0.00 0.00 76 1019.1
20170321223943 33 330 23.0 33.0 0.03 0.00 0.00 73 1018.9
20170321223445 33 323 21.0 28.0 0.03 0.00 0.00 73 1018.9
20170321222943 33 328 23.0 35.0 0.03 0.00 0.00 74 1018.9
20170321222443 34 312 23.0 29.0 0.03 0.00 0.00 73 1019.0
20170321221944 34 346 24.0 32.0 0.03 0.00 0.00 73 1018.9
20170321221443 34 332 27.0 34.0 0.03 0.00 0.00 73 1018.9
20170321220943 34 342 30.0 40.0 0.03 0.00 0.00 73 1018.6